Regional Weather Roundup
Issued by NWS

Home | Current Version | Previous Version | Graphics & Text | Print | Product List | Glossary On
Versions: 1 2 3 4 5 6 7 8 9 10 11 12 13 14 15 16 17 18 19 20 21 22 23 24 25 26 27 28 29 30 31 32 33 34 35 36 37 38 39 40 41 42 43 44 45 46 47 48 49 50
652
ASUS45 KCYS 200610
RWRWY

WYOMING REGIONAL WEATHER ROUNDUP
NATIONAL WEATHER SERVICE CHEYENNE WY
1100 PM MST FRI JAN 19 2018

NOTE:  "FAIR" INDICATES FEW OR NO CLOUDS BELOW 12,000 FEET
WITH NO SIGNIFICANT WEATHER AND/OR OBSTRUCTIONS TO VISIBILITY.

WYZ001-200700-
YELLOWSTONE NATIONAL PARK

CITY           SKY/WX    TMP DP  RH WIND       PRES   REMARKS
LK YELLOWSTONE   N/A     20  16  84 VRB5      29.81S WCI  13
6HR MIN TEMP:  19; 6HR MAX TEMP:  25; 6HR PCP:  0.03;

W YELLOWSTONE  NOT AVBL

$$
WYZ002>013-054>058-071-098>099-200700-
NORTHERN WYOMING

CITY           SKY/WX    TMP DP  RH WIND       PRES   REMARKS
JACKSON        CLOUDY    25  17  72 W5        29.84R WCI  19
CODY           MIX PCPN  29  27  92 NE6       29.83R WCI  23
GREYBULL       CLOUDY    33  29  85 NW14      29.80R WCI  23
6HR MIN TEMP:  33; 6HR MAX TEMP:  36;

WORLAND        LGT SNOW  32  32 100 NW5       29.81S VSB 1   WCI  27
6HR MIN TEMP:  30; 6HR MAX TEMP:  34; 6HR PCP:  0.08;

SHERIDAN       LGT SNOW  33  33 100 NW8       29.84R FOG     WCI  26
6HR MIN TEMP:  33; 6HR MAX TEMP:  38; 6HR PCP: TRACE;

BUFFALO        LGT SNOW  32  28  85 N15       29.80R FOG     WCI  22
6HR MIN TEMP:  32; 6HR MAX TEMP:  38; 6HR PCP: TRACE;

GILLETTE       LGT SNOW  33  32  96 CALM      29.80R FOG
6HR MIN TEMP:  33; 6HR MAX TEMP:  39; 6HR PCP:  0.05;

HULETT         MIX PCPN  36  32  87 CALM      29.80R
NEWCASTLE      FAIR      32  28  86 N6        29.78S WCI  26

$$
WYZ014>020-022>026-101>103-200700-
CENTRAL WYOMING

CITY           SKY/WX    TMP DP  RH WIND       PRES   REMARKS
BIG PINEY      CLOUDY    25  17  72 CALM      29.85R
6HR MIN TEMP:  25; 6HR MAX TEMP:  33;

PINEDALE       CLOUDY    25  19  80 W8        29.84R WCI  16
DUBOIS         CLOUDY    27  14  59 NW8       29.76S WCI  18
LANDER         CLOUDY    36  26  67 E6        29.76R WCI  31
6HR MIN TEMP:  34; 6HR MAX TEMP:  39;

RIVERTON       CLOUDY    33  28  81 N9        29.77R WCI  25
6HR MIN TEMP:  33; 6HR MAX TEMP:  38;

CASPER         CLOUDY    33  30  88 NW9       29.76R WCI  25
6HR MIN TEMP:  33; 6HR MAX TEMP:  44;

DOUGLAS        FAIR      28  26  92 NW3       29.75R
6HR MIN TEMP:  28; 6HR MAX TEMP:  49;


$$
WYZ021-027>030-104>119-200700-
SOUTHERN WYOMING

CITY           SKY/WX    TMP DP  RH WIND       PRES   REMARKS
EVANSTON       FOG       24  22  91 NE9       29.89R VSB 1   WCI  14
6HR MIN TEMP:  24; 6HR MAX TEMP:  36; 6HR PCP:  0.09;

ROCK SPRINGS   CLOUDY    28  23  81 W13       29.86R WCI  17
6HR MIN TEMP:  28; 6HR MAX TEMP:  42; 6HR PCP: TRACE;

DIXON            N/A     39  21  50 S7        29.85S WCI  34
RAWLINS        FAIR      35  21  56 SW15      29.79R WCI  25
6HR MIN TEMP:  35; 6HR MAX TEMP:  44;

SARATOGA       FAIR      41  21  45 SW20G28   29.78S
LARAMIE        FAIR      30  17  58 SE8       29.79S WCI  22
6HR MIN TEMP:  28; 6HR MAX TEMP:  43;

CHEYENNE       FAIR      41  17  38 NW6       29.77F
6HR MIN TEMP:  37; 6HR MAX TEMP:  55;

TORRINGTON     FAIR      32  28  85 E8        29.74S WCI  25
6HR MIN TEMP:  32; 6HR MAX TEMP:  55;


$$




USA.gov is the U.S. government's official web portal to all federal, state and local government web resources and services.